Regional Weather Roundup
Issued by NWS Sioux Falls, SD

Home | Current Version | Previous Version | Text Only | Print | Product List | Glossary On
Versions: 1 2 3 4 5 6 7 8 9 10 11 12 13 14 15 16 17 18 19 20 21 22 23 24 25 26 27 28 29 30 31 32 33 34 35 36 37 38 39 40 41 42 43 44 45 46 47 48 49 50
000
ASUS43 KFSD 240502
RWRFSD

WEATHER ROUNDUP FOR SE SOUTH DAKOTA/SW MINNESOTA/NW IOWA
NATIONAL WEATHER SERVICE SIOUX FALLS SD
1100 PM CST FRI FEB 23 2018

NOTE: "FAIR" INDICATES FEW OR NO CLOUDS BELOW 12,000 FEET WITH NO
SIGNIFICANT WEATHER AND OR OBSTRUCTIONS TO VISIBILITY.


SDZ038>040-050-052>070-240600-
SOUTHEAST SOUTH DAKOTA

CITY           SKY/WX    TMP DP  RH WIND       PRES   REMARKS
BROOKINGS      FOG       11   9  92 N3        30.22F VSB 1/4
CHAMBERLAIN    CLEAR      3   1  93 CALM      30.20F
HURON          FOG       -4  -6  91 NE5       30.24F VSB 3/4 WCI -15
MADISON        FOG       -2  -2 100 NE7       30.22F VSB<1/4 WCI -16
MITCHELL       PTCLDY     2  -2  83 CALM      30.26F
SIOUX FALLS    FOG       15  14  95 NE5       30.25S VSB 1/4 WCI   8
WINNER         FAIR       9   4  80 SE8       30.16F WCI  -3
YANKTON        FOG       12  10  92 E5        30.26F VSB 3/4 WCI   4
$$

MNZ071-072-080-081-089-090-097-098-240600-
SOUTHWEST MINNESOTA

CITY           SKY/WX    TMP DP  RH WIND       PRES   REMARKS
FAIRMONT       FOG        6   3  87 CALM      30.29R VSB 1/2
JACKSON        FOG       18  14  86 N3        30.26R VSB 1/4
LUVERNE        FOG       16  14  93 CALM      30.26R VSB 3/4
MARSHALL       SNOW       7   5  91 NW7       30.27F VSB 1/4 WCI  -5
MONTEVIDEO     CLOUDY     7   1  78 CALM      30.29F FOG
PIPESTONE      SNOW      12  10  92 N6        30.21F VSB 1/4 WCI   3
REDWOOD FALLS  CLOUDY    12  10  92 NW8       30.27F FOG     WCI   0
TRACY          CLOUDY    12  11  94 CALM      30.25F FOG
WORTHINGTON    SNOW      15  13  91 N6        30.25R VSB 1/4 WCI   6
$$

IAZ001>003-012>014-020>022-031-032-NEZ013-014-SDZ071-240600-
NORTHWEST IOWA

CITY           SKY/WX    TMP DP  RH WIND       PRES   REMARKS
CHEROKEE       CLOUDY    20  20 100 NE3       30.28F FOG
DENISON        CLOUDY    21  21 100 E9        30.27F WCI  11
ESTHERVILLE    FOG       16  15  96 N9        30.27R VSB 1/4 WCI   4
LE MARS        CLOUDY    18  18 100 NE6       30.28F FOG     WCI   9
ORANGE CITY    FOG       18  18 100 NE3       30.26S VSB 1/2
SHELDON        FOG       16  16 100 N5        30.25S VSB<1/4 WCI   9
SIOUX CITY     CLOUDY    18  17  96 E7        30.29F FOG     WCI   9
SPENCER        FOG       18  16  92 N5        30.27S VSB 1/2 WCI  11
STORM LAKE     CLEAR     19  19 100 NE6       30.25F FOG     WCI  11
$$

ABBREVIATIONS USED IN REMARKS
   TC - TEMPERATURE IN CELSIUS
  WCI - WIND CHILL INDEX
   HX - HEAT INDEX
  VSB - VISIBILITY





USA.gov is the U.S. government's official web portal to all federal, state and local government web resources and services.